TimeCDT,TemperatureF,Dew PointF,Humidity,Sea Level PressureIn,VisibilityMPH,Wind Direction,Wind SpeedMPH,Gust SpeedMPH,PrecipitationIn,Events,Conditions,WindDirDegrees,DateUTC
12:53 AM,73.9,64.0,71,30.06,10.0,East,5.8,-,N/A,,Partly Cloudy,90,2013-09-05 05:53:00
1:53 AM,72.0,64.0,76,30.07,10.0,ESE,5.8,-,N/A,,Partly Cloudy,120,2013-09-05 06:53:00
2:53 AM,73.0,63.0,71,30.07,10.0,Calm,Calm,-,N/A,,Clear,0,2013-09-05 07:53:00
3:53 AM,70.0,64.0,81,30.08,10.0,Calm,Calm,-,N/A,,Clear,0,2013-09-05 08:53:00
4:53 AM,69.1,64.0,84,30.08,10.0,Calm,Calm,-,N/A,,Clear,0,2013-09-05 09:53:00
5:53 AM,69.1,63.0,81,30.08,10.0,SE,3.5,-,N/A,,Clear,130,2013-09-05 10:53:00
6:53 AM,68.0,63.0,84,30.10,10.0,ESE,3.5,-,N/A,,Clear,110,2013-09-05 11:53:00
7:53 AM,69.1,64.0,84,30.11,10.0,SE,4.6,-,N/A,,Clear,130,2013-09-05 12:53:00
8:53 AM,75.9,60.1,58,30.12,10.0,South,10.4,-,N/A,,Scattered Clouds,170,2013-09-05 13:53:00
9:53 AM,80.1,61.0,52,30.14,10.0,SSE,8.1,-,N/A,,Mostly Cloudy,160,2013-09-05 14:53:00
10:53 AM,82.9,60.1,46,30.14,10.0,SSE,11.5,-,N/A,,Mostly Cloudy,160,2013-09-05 15:53:00
11:53 AM,86.0,61.0,43,30.14,10.0,South,8.1,-,N/A,,Mostly Cloudy,180,2013-09-05 16:53:00
12:53 PM,90.0,62.1,39,30.12,10.0,Variable,5.8,-,N/A,,Mostly Cloudy,0,2013-09-05 17:53:00
1:53 PM,91.0,62.1,38,30.10,10.0,Variable,4.6,-,N/A,,Scattered Clouds,0,2013-09-05 18:53:00
2:53 PM,91.9,62.1,37,30.07,10.0,South,6.9,-,N/A,,Scattered Clouds,190,2013-09-05 19:53:00
3:53 PM,93.0,62.1,36,30.06,10.0,Calm,Calm,-,N/A,,Scattered Clouds,0,2013-09-05 20:53:00
4:53 PM,93.0,61.0,34,30.04,10.0,Calm,Calm,-,N/A,,Scattered Clouds,0,2013-09-05 21:53:00
5:53 PM,93.0,62.1,36,30.03,10.0,Calm,Calm,-,N/A,,Scattered Clouds,0,2013-09-05 22:53:00
6:53 PM,91.0,62.1,38,30.03,10.0,ENE,5.8,-,N/A,,Scattered Clouds,70,2013-09-05 23:53:00
7:53 PM,84.9,64.0,49,30.03,10.0,East,5.8,-,N/A,,Scattered Clouds,90,2013-09-06 00:53:00
8:53 PM,84.0,64.0,51,30.05,10.0,ENE,4.6,-,N/A,,Scattered Clouds,70,2013-09-06 01:53:00
9:53 PM,79.0,64.0,60,30.07,10.0,East,5.8,-,N/A,,Partly Cloudy,100,2013-09-06 02:53:00
10:53 PM,78.1,64.0,62,30.07,10.0,East,4.6,-,N/A,,Clear,100,2013-09-06 03:53:00
11:53 PM,77.0,63.0,62,30.07,10.0,SE,5.8,-,N/A,,Clear,130,2013-09-06 04:53:00